Find Marafon-D GVM

NORAD ID: 59072 Int'l Des: 2024-039 Owner: NPOPM Country: RU operational
LEOCIRCULARPOLAR

当前视图

正在加载3D地球...

关于 Marafon-D GVM

正在加载描述...

即将过境

Passes for default location (London). Set your location on the main map for personalized predictions.

高度历史

Loading altitude history...

两行轨道根数

1 59072U 24039V 26149.61705885 .00000297 00000-0 78850-4 0 9993
2 59072 88.9812 286.0855 0018211 45.6498 314.6195 14.46001270118503
Epoch: May 29, 2026 • Age: 15 hours

当前状态

高度 731.0 km
速度 7.50 km/s
星下点 5.81°N, 48.4°W
发射日期 Feb 29, 2024
运行时间 2.2 years
类型 other

技术详情

分类 Payload
质量 50.00 kg
干质量 50.00 kg
总质量 50.00 kg
长度 0.70 m
直径 0.30 m
跨度 0.70 m
形状 Box
制造商 NPOPM
平台类型 Marafon
阶段状态 In Orbit
所有者/国家 NPOPM/RU

Most Searched